Elk Grove Village, Illinois, United States (60007)
Lat: 42.00N, Lon: 87.97W
Wx Zone: ILZ014
Local Info
Past Weather Observations for Today

NOTE: This archive is for the closest National Weather Service station to Elk Grove Village. Information may differ from the station used for current weather conditions.

Click here for Long-term Archive

Time Weather Temperature Dewpoint Humidity Pressure Winds Precip Visibility
22:51
Overcast
54°F / 12°C 45°F / 7°C 72% 29.77 in
(1008 mb)
NE 8.1 mph
(NE 13 kph)
- 10SM
21:51
Overcast
55°F / 13°C 46°F / 8°C 72% 29.8 in
(1009 mb)
NNE 9.2 mph
(NNE 15 kph)
- 10SM
20:51
Overcast
57°F / 14°C 46°F / 8°C 67% 29.8 in
(1009 mb)
NNE 13.8 mph
(NNE 22 kph)
- 10SM
19:51
Mostly Cloudy
61°F / 16°C 45°F / 7°C 55% 29.77 in
(1008 mb)
NE 9.2 mph
(NE 15 kph)
- 10SM
18:51
Overcast
63°F / 17°C 34°F / 1°C 34% 29.77 in
(1008 mb)
SSW 6.9 mph
(SSW 11 kph)
- 10SM
17:51
Overcast
64°F / 18°C 34°F / 1°C 32% 29.77 in
(1008 mb)
SSW 11.5 mph
(SSW 19 kph)
- 10SM
16:51
Mostly Cloudy
66°F / 19°C 30°F / -1°C 26% 29.74 in
(1007 mb)
W 16.1 mph
(W 26 kph)
- 10SM
15:51
Overcast
66°F / 19°C 32°F / 0°C 28% 29.74 in
(1007 mb)
W 17.3 mph
(W 28 kph)
- 10SM
14:51
Mostly Cloudy
68°F / 20°C 36°F / 2°C 30% 29.74 in
(1007 mb)
W 17.3 mph
(W 28 kph)
- 10SM
13:51
Mostly Cloudy
68°F / 20°C 34°F / 1°C 28% 29.74 in
(1007 mb)
SSW 19.6 mph
(SSW 32 kph)
- 10SM
12:51
Partly Cloudy
70°F / 21°C 34°F / 1°C 27% 29.74 in
(1007 mb)
SSW 23 mph
(SSW 37 kph)
- 10SM
11:51
Partly Cloudy
66°F / 19°C 30°F / -1°C 26% 29.77 in
(1008 mb)
SSW 21.9 mph
(SSW 35 kph)
- 10SM
10:51
Partly Cloudy
66°F / 19°C 32°F / 0°C 28% 29.77 in
(1008 mb)
SSW 25.3 mph
(SSW 41 kph)
- 10SM
09:51
Partly Cloudy
64°F / 18°C 30°F / -1°C 28% 29.8 in
(1009 mb)
SSW 20.7 mph
(SSW 33 kph)
- 10SM
08:51
Partly Cloudy
61°F / 16°C 37°F / 3°C 42% 29.83 in
(1010 mb)
SSW 15 mph
(SSW 24 kph)
- 10SM
07:51
Partly Cloudy
57°F / 14°C 39°F / 4°C 51% 29.83 in
(1010 mb)
SSW 13.8 mph
(SSW 22 kph)
- 10SM
06:51
Partly Cloudy
54°F / 12°C 39°F / 4°C 58% 29.83 in
(1010 mb)
SSW 11.5 mph
(SSW 19 kph)
- 10SM
05:51
Partly Cloudy
52°F / 11°C 39°F / 4°C 62% 29.83 in
(1010 mb)
SSW 12.7 mph
(SSW 20 kph)
- 10SM
04:51
Clear
52°F / 11°C 39°F / 4°C 62% 29.83 in
(1010 mb)
SSW 13.8 mph
(SSW 22 kph)
- 10SM
03:51
Clear
52°F / 11°C 39°F / 4°C 62% 29.83 in
(1010 mb)
SSW 10.4 mph
(SSW 17 kph)
- 10SM
02:51
Clear
54°F / 12°C 39°F / 4°C 58% 29.86 in
(1011 mb)
SSW 12.7 mph
(SSW 20 kph)
- 10SM
01:51
Clear
55°F / 13°C 39°F / 4°C 55% 29.89 in
(1012 mb)
SSW 10.4 mph
(SSW 17 kph)
- 10SM
00:51
Clear
55°F / 13°C 37°F / 3°C 51% 29.89 in
(1012 mb)
SSW 9.2 mph
(SSW 15 kph)
- 10SM
Time Weather Temperature Dewpoint Humidity Pressure Winds Precip Visibility


Weather for websites

WeatherForYou.com, LLC is not responsible for any damages or problems caused by this service. Current weather conditions are obtained from the closest station including government and personal stations which may have varying degrees of accuracy. Weather forecasts are derived from the NOAA NDFD. Like all things, this site belongs to Jesus Christ... He just trusts us to maintain it. If you have any questions or comments email webmaster@weatherforyou.com

Copyright © 2016, WeatherForYou.com LLC. All rights reserved.